TimeEDT,TemperatureF,Dew PointF,Humidity,Sea Level PressureIn,VisibilityMPH,Wind Direction,Wind SpeedMPH,Gust SpeedMPH,PrecipitationIn,Events,Conditions,WindDirDegrees,DateUTC
12:52 AM,54.0,51.1,90,29.60,4.0,NE,11.5,21.9,0.17,Rain,Rain,40,2013-06-14 04:52:00
1:11 AM,54.0,52.0,93,29.61,5.0,NE,8.1,19.6,0.04,Rain,Rain,40,2013-06-14 05:11:00
1:52 AM,54.0,52.0,93,29.60,5.0,Variable,5.8,-,0.14,Rain,Rain,0,2013-06-14 05:52:00
2:52 AM,54.0,51.1,90,29.60,3.0,NE,11.5,21.9,0.13,Rain,Rain,50,2013-06-14 06:52:00
3:01 AM,54.0,51.1,90,29.60,2.5,NE,8.1,20.7,0.05,Rain,Heavy Rain,50,2013-06-14 07:01:00
3:12 AM,54.0,51.1,90,29.60,3.0,NE,9.2,20.7,0.07,Rain,Rain,50,2013-06-14 07:12:00
3:24 AM,54.0,52.0,93,29.59,2.5,NE,9.2,17.3,0.12,Rain,Heavy Rain,50,2013-06-14 07:24:00
3:31 AM,54.0,52.0,93,29.59,2.5,NNE,8.1,17.3,0.16,Rain,Heavy Rain,30,2013-06-14 07:31:00
3:40 AM,54.0,52.0,93,29.60,3.0,NE,8.1,-,0.19,Rain,Heavy Rain,40,2013-06-14 07:40:00
3:43 AM,54.0,52.0,93,29.60,3.0,Variable,6.9,-,0.20,Rain,Rain,0,2013-06-14 07:43:00
3:52 AM,54.0,52.0,93,29.60,3.0,NNE,8.1,16.1,0.23,Rain,Rain,30,2013-06-14 07:52:00
4:05 AM,54.0,52.0,93,29.60,2.0,NE,9.2,19.6,0.08,Rain,Heavy Rain,40,2013-06-14 08:05:00
4:18 AM,54.0,52.0,93,29.60,4.0,NNE,8.1,16.1,0.12,Rain,Rain,30,2013-06-14 08:18:00
4:52 AM,54.0,51.1,90,29.61,3.0,NNE,6.9,16.1,0.19,Rain,Rain,30,2013-06-14 08:52:00
4:59 AM,54.0,52.0,93,29.61,2.5,NNE,8.1,16.1,0.02,Rain,Rain,30,2013-06-14 08:59:00
5:30 AM,54.0,51.1,90,29.62,3.0,Variable,6.9,-,0.12,Rain,Rain,0,2013-06-14 09:30:00
5:34 AM,54.0,52.0,93,29.62,2.5,NNE,8.1,-,0.13,Rain,Rain,30,2013-06-14 09:34:00
5:48 AM,53.6,51.8,94,29.63,3.0,Variable,6.9,-,0.16,Rain,Rain,0,2013-06-14 09:48:00
5:52 AM,54.0,52.0,93,29.63,2.5,NE,8.1,-,0.17,Rain,Rain,40,2013-06-14 09:52:00
6:14 AM,54.0,51.1,90,29.63,3.0,NNE,10.4,-,0.07,Rain,Rain,30,2013-06-14 10:14:00
6:22 AM,54.0,51.1,90,29.64,3.0,NE,8.1,-,0.09,Rain,Rain,40,2013-06-14 10:22:00
6:30 AM,54.0,51.1,90,29.64,4.0,Variable,6.9,17.3,0.10,Rain,Rain,0,2013-06-14 10:30:00
6:34 AM,54.0,51.1,90,29.64,4.0,Variable,6.9,-,0.10,Rain,Light Rain,0,2013-06-14 10:34:00
6:43 AM,54.0,51.1,90,29.64,5.0,Variable,6.9,-,0.11,Rain,Light Rain,0,2013-06-14 10:43:00
6:52 AM,54.0,51.1,90,29.65,5.0,NNE,9.2,-,0.12,Rain,Light Rain,30,2013-06-14 10:52:00
7:01 AM,54.0,51.1,90,29.65,6.0,Variable,6.9,19.6,0.00,Rain,Light Rain,0,2013-06-14 11:01:00
7:12 AM,54.0,51.1,90,29.65,5.0,NNE,8.1,-,0.01,Rain,Light Rain,20,2013-06-14 11:12:00
7:39 AM,54.0,52.0,93,29.66,7.0,Variable,5.8,-,0.03,Rain,Light Rain,0,2013-06-14 11:39:00
7:52 AM,54.0,52.0,93,29.67,7.0,NNE,6.9,-,0.04,Rain,Light Rain,30,2013-06-14 11:52:00
8:18 AM,54.0,51.1,90,29.67,10.0,NNE,8.1,18.4,0.02,Rain,Light Rain,30,2013-06-14 12:18:00
8:52 AM,55.0,51.1,86,29.68,10.0,NNE,8.1,19.6,0.02,Rain,Light Rain,20,2013-06-14 12:52:00
9:24 AM,55.9,51.1,84,29.68,10.0,NNE,10.4,25.3,0.00,,Mostly Cloudy,30,2013-06-14 13:24:00
9:52 AM,57.9,51.1,78,29.66,10.0,NNE,11.5,23.0,0.00,,Mostly Cloudy,30,2013-06-14 13:52:00
10:13 AM,57.9,48.9,72,29.67,10.0,NE,12.7,24.2,N/A,,Mostly Cloudy,50,2013-06-14 14:13:00
10:52 AM,60.1,48.0,64,29.69,10.0,NE,8.1,24.2,N/A,,Overcast,40,2013-06-14 14:52:00
11:52 AM,61.0,48.9,64,29.71,10.0,North,15.0,26.5,N/A,,Overcast,10,2013-06-14 15:52:00
12:52 PM,64.0,48.9,58,29.71,10.0,NNE,11.5,20.7,N/A,,Overcast,30,2013-06-14 16:52:00
1:52 PM,63.0,46.0,54,29.72,10.0,NNE,10.4,23.0,N/A,,Overcast,20,2013-06-14 17:52:00
2:52 PM,66.9,48.0,51,29.73,10.0,Variable,6.9,-,N/A,,Scattered Clouds,0,2013-06-14 18:52:00
3:52 PM,66.0,48.9,54,29.72,10.0,Variable,3.5,-,N/A,,Clear,0,2013-06-14 19:52:00
4:52 PM,68.0,51.1,55,29.71,10.0,Calm,Calm,-,N/A,,Partly Cloudy,0,2013-06-14 20:52:00
5:52 PM,72.0,54.0,53,29.71,10.0,Variable,5.8,-,N/A,,Clear,0,2013-06-14 21:52:00
6:52 PM,71.1,54.0,55,29.72,10.0,WNW,5.8,-,N/A,,Clear,290,2013-06-14 22:52:00
7:52 PM,64.9,57.0,75,29.72,10.0,WSW,3.5,-,N/A,,Clear,250,2013-06-14 23:52:00
8:52 PM,57.9,55.9,93,29.73,10.0,Calm,Calm,-,N/A,,Clear,0,2013-06-15 00:52:00
9:52 PM,60.1,55.0,83,29.75,10.0,Calm,Calm,-,N/A,,Clear,0,2013-06-15 01:52:00
10:52 PM,57.9,54.0,87,29.74,10.0,Calm,Calm,-,N/A,,Mostly Cloudy,0,2013-06-15 02:52:00
11:52 PM,59.0,54.0,83,29.76,10.0,Calm,Calm,-,N/A,,Clear,0,2013-06-15 03:52:00